Showing default

KINEIS-1D, 60082

Orbit data source: Space-Track

KINEIS-1D, 60082 is a French payload satellite in SSO that was launched on Thu, 20 Jun 2024 UTC via an ELECTRON launch vehicle from the Rocket Lab Launch Complex (RLLC). Payloads include a variety of satellites, spacecraft, and rockets equipped with specific instruments for various scientific and technological missions. These include communications satellites like Starlink; space stations such as the ISS; scientific satellites like the Hubble; Earth observation satellites from companies like Planet Labs, Umbra, and HawkEye 360; GPS; miniature CubeSats for education and research; and military/defense satellites.

Loading next visibility...
KINEIS-1D details
Identifier
60082, 2024-114D
Orbit
SSO
Last TLE update11 hours ago
Origin
Flag of FRKINEIS (FR)
ManufacturerKINEIS
MissionOperational Commercial Communications
Bus & MotorCUBESAT 16U, Unknown motor
Mass28 kg wet, 28 kg dry
Launch date (UTC)
2024-06-20 (6 months ago)
Launch vehicle
ELECTRON
Launch site
Rocket Lab Launch Complex (RLLC)
Object type
Payload
Rocket body
Debris
Shape & HBRBox + 2 Pan + 1 Ant, 1.6 m
Radar Cross Section0.229 m², Small (<0.1 m²)

Expand to show TLE details & history

TLE from 11 hours ago
0 KINEIS-1D
1 60082U 24114D   24356.13944179  .00001899  00000-0  28998-3 0  9992
2 60082  98.0210  10.5593 0002578 113.7143 246.4336 14.74967912 27033
Epoch: 2024-12-21T03:20Z
Definitive object data (Epoch: 2024-12-21T03:20:47.77Z)
Latitude-0.00008°
Longitude-129.83462°
Altitude648.989 km
Speed7.533 km/s
True Right ascension00h 42m 14s
True Declination0° 00' 00"
Sunlit
Object was in daylight at TLE epoch
Visualization TLE readout
Latitude-30.27229°
Longitude-124.67737°
Altitude658.066 km
Speed7.526 km/s
Apparent Right ascension01h 18m 45s
Apparent Declination-34° 45' 59"
Sunlit
Object is in daylight
Visualization observer readout
Local Sidereal Time13:38:30
Azimuth38.83° NE
Elevation-83.528°
Doppler factor1
Orbital elements
Apogee altitude644.116 km
Perigee altitude640.496 km
Semi-major axis7,020.443 km
Eccentricity0.0002578
Inclination98.021°
RAAN10.5593°
Arg. of periapsis113.7143°
True anomaly246.40653°
Mean anomaly246.4336°
Eccentric anomaly246.42006°
Mean motion3.68975 °/min
BSTAR0.00028998
Orbital period97.57 mins
Loading maneuver chart data...
Loading historical data...
Loading historical data...
Loading historical data...
Loading historical data...
Loading historical data...
Loading historical data...
Loading historical data...

KINEIS-1D Visibility forecast

Observer location: undefined°, undefined

Span
Click to sort rows by Start time (UTC) header in descending order
Start Az.
Max El. time (UTC)
Max El. Az.
Max El.
End time (UTC)
End Az.
4 mins2024-12-21 15:19:20.722Z323.216° NNW2024-12-21 15:21:20.722Z293.147° NW15.224°2024-12-21 15:23:20.722Z264.111° W
6 mins2024-12-22 00:39:20.722Z130.872° SE2024-12-22 00:42:20.722Z64.221° ENE31.999°2024-12-22 00:45:20.722Z8.583° NNE
4 mins2024-12-22 02:17:20.722Z241.41° WSW2024-12-22 02:19:20.722Z274.971° WNW17.057°2024-12-22 02:21:20.722Z304.318° NW
7 mins2024-12-22 14:07:20.722Z11.929° NNE2024-12-22 14:10:20.722Z205.081° SW44.45°2024-12-22 14:14:20.722Z194.884° SSW
|